Location: Harwich
(41.7160°N, 69.9939°W)
Time: 15:59:38
(UTC+01:00)

Explorer 7 - Visible Passes

Search period start: 02 December 2023 00:00
Search period end: 12 December 2023 00:00
Orbit: 472 x 640 km, 50.3° (Epoch: 02 December)

Date Brightness Start Highest point End Pass type
(mag) Time Alt. Az. Time Alt. Az. Time Alt. Az.
02 Dec 8.2 00:17:05 10° WNW 00:19:51 26° NNW 00:19:51 26° NNW visible
03 Dec 8.3 00:13:53 10° WNW 00:16:32 23° NNW 00:16:32 23° NNW visible
04 Dec 8.4 00:10:36 10° WNW 00:13:09 22° NNW 00:13:09 22° NNW visible
05 Dec 8.4 00:07:14 10° NW 00:09:42 21° NNW 00:09:42 21° NNW visible
06 Dec 8.3 00:03:46 10° NW 00:06:13 21° N 00:06:13 21° N visible
07 Dec 8.3 00:00:12 10° NW 00:02:41 21° N 00:02:41 21° N visible
07 Dec 8.1 23:56:31 10° NW 23:59:09 23° N 23:59:09 23° N visible
08 Dec 7.9 23:52:45 10° NW 23:55:35 26° N 23:55:35 26° N visible
09 Dec 7.6 23:48:53 10° NW 23:52:03 30° NNE 23:52:03 30° NNE visible
10 Dec 7.2 23:44:58 10° NW 23:48:24 36° NNE 23:48:32 36° NNE visible
11 Dec 6.9 23:40:58 10° NW 23:44:31 45° NNE 23:45:06 41° NE visible
